,,Stat6,,Stat2,,Stat8,,Stat9,,Stat10,,Wind1,,Wind1,
time,status,PA1M_AVG,status,PR1M_SUM,status,RH1M_AVG,status,SR1M_AVG,status,TA1M_AVG,status,W1dAve1m,status,W1sAve1m,
2005-01-23, 00:00:00,VALID,919.861,VALID,0,VALID,85.8384,VALID,-0.0339617,VALID,21.0883,VALID,131,VALID,1.46476,
2005-01-23, 00:01:00,VALID,919.843,VALID,0,VALID,85.9338,VALID,-0.0679233,VALID,21.076,VALID,148,VALID,1.55022,
2005-01-23, 00:02:00,VALID,919.825,VALID,0,VALID,85.991,VALID,-0.0679233,VALID,21.0469,VALID,145,VALID,1.80915,
2005-01-23, 00:03:01,VALID,919.832,VALID,0,VALID,86.0419,VALID,0,VALID,21.0407,VALID,125,VALID,1.87388,
2005-01-23, 00:04:01,VALID,919.831,VALID,0,VALID,86.0851,VALID,-0.0509425,VALID,21.0181,VALID,130,VALID,1.81831,
2005-01-23, 00:05:00,VALID,919.823,VALID,0,VALID,85.9503,VALID,-0.0679233,VALID,21.0213,VALID,142,VALID,2.03068,
2005-01-23, 00:06:00,VALID,919.832,VALID,0,VALID,85.7379,VALID,-0.0509425,VALID,21.0404,VALID,146,VALID,1.80126,
2005-01-23, 00:07:00,VALID,919.841,VALID,0,VALID,85.9236,VALID,-0.0339617,VALID,21.0657,VALID,118,VALID,1.04781,
2005-01-23, 00:08:00,VALID,919.84,VALID,0,VALID,86.0749,VALID,-0.0169808,VALID,21.0531,VALID,113,VALID,1.17934,
2005-01-23, 00:09:00,VALID,919.846,VALID,0,VALID,86.2377,VALID,-0.0509425,VALID,21.021,VALID,114,VALID,1.63142,
2005-01-23, 00:10:00,VALID,919.854,VALID,0,VALID,86.2351,VALID,-0.0339617,VALID,20.9982,VALID,131,VALID,1.34066,
2005-01-23, 00:11:00,VALID,919.849,VALID,0,VALID,86.3826,VALID,-0.0339617,VALID,20.9947,VALID,116,VALID,0.877976,
2005-01-23, 00:12:01,VALID,919.852,VALID,0,VALID,86.5441,VALID,-0.0169808,VALID,20.992,VALID,120,VALID,0.828993,
2005-01-23, 00:13:00,VALID,919.846,VALID,0,VALID,86.7044,VALID,0,VALID,20.9427,VALID,144,VALID,0.950267,
2005-01-23, 00:14:00,VALID,919.832,VALID,0,VALID,86.7768,VALID,-0.0169808,VALID,20.9204,VALID,128,VALID,1.17351,
2005-01-23, 00:15:00,VALID,919.805,VALID,0,VALID,86.9841,VALID,-0.0339617,VALID,20.908,VALID,135,VALID,0.863567,
2005-01-23, 00:16:00,VALID,919.801,VALID,0,VALID,86.9867,VALID,-0.0849042,VALID,20.8854,VALID,122,VALID,1.71745,
2005-01-23, 00:17:00,VALID,919.776,VALID,0,VALID,86.9956,VALID,-0.0339617,VALID,20.8652,VALID,126,VALID,1.68821,
2005-01-23, 00:18:01,VALID,919.756,VALID,0,VALID,87.1214,VALID,-0.0509425,VALID,20.8627,VALID,129,VALID,1.03989,
2005-01-23, 00:19:00,VALID,919.741,VALID,0,VALID,87.1685,VALID,0,VALID,20.8267,VALID,133,VALID,1.61493,
2005-01-23, 00:20:00,VALID,919.74,VALID,0,VALID,87.2778,VALID,-0.0169808,VALID,20.8302,VALID,132,VALID,1.38009,
2005-01-23, 00:21:01,VALID,919.722,VALID,0,VALID,87.2537,VALID,0,VALID,20.82,VALID,116,VALID,1.43262,
2005-01-23, 00:22:00,VALID,919.702,VALID,0,VALID,87.3834,VALID,0,VALID,20.824,VALID,127,VALID,1.22726,
2005-01-23, 00:23:00,VALID,919.697,VALID,0,VALID,87.5423,VALID,-0.0509425,VALID,20.7817,VALID,138,VALID,1.40425,
2005-01-23, 00:24:00,VALID,919.664,VALID,0,VALID,87.6479,VALID,0,VALID,20.7623,VALID,142,VALID,1.60469,
2005-01-23, 00:25:01,VALID,919.639,VALID,0,VALID,87.7255,VALID,-0.0169808,VALID,20.7432,VALID,140,VALID,1.39644,
2005-01-23, 00:26:00,VALID,919.629,VALID,0,VALID,87.784,VALID,-0.101885,VALID,20.737,VALID,131,VALID,1.89499,
2005-01-23, 00:27:01,VALID,919.59,VALID,0,VALID,87.7967,VALID,-0.0679233,VALID,20.7209,VALID,130,VALID,1.77362,
2005-01-23, 00:28:00,VALID,919.562,VALID,0,VALID,87.7229,VALID,-0.0679233,VALID,20.73,VALID,143,VALID,2.04874,
2005-01-23, 00:29:00,VALID,919.557,VALID,0,VALID,87.6631,VALID,-0.0679233,VALID,20.7502,VALID,143,VALID,1.42369,
2005-01-23, 00:30:00,VALID,919.552,VALID,0,VALID,87.7026,VALID,-0.0679233,VALID,20.7634,VALID,146,VALID,1.67111,
2005-01-23, 00:31:01,VALID,919.57,VALID,0,VALID,87.8399,VALID,-0.0679233,VALID,20.7534,VALID,141,VALID,1.72874,
2005-01-23, 00:32:00,VALID,919.557,VALID,0,VALID,87.7204,VALID,-0.101885,VALID,20.7467,VALID,133,VALID,2.09266,
2005-01-23, 00:33:00,VALID,919.535,VALID,0,VALID,87.7725,VALID,-0.0679233,VALID,20.7768,VALID,141,VALID,1.52507,
2005-01-23, 00:34:00,VALID,919.519,VALID,0,VALID,87.7916,VALID,-0.0679233,VALID,20.7537,VALID,145,VALID,1.87396,
2005-01-23, 00:35:00,VALID,919.514,VALID,0,VALID,87.8933,VALID,-0.0679233,VALID,20.7346,VALID,145,VALID,1.99104,
2005-01-23, 00:36:00,VALID,919.504,VALID,0,VALID,87.9518,VALID,-0.101885,VALID,20.7276,VALID,135,VALID,1.7125,
2005-01-23, 00:37:01,VALID,919.493,VALID,0,VALID,87.8959,VALID,0,VALID,20.7241,VALID,142,VALID,2.02305,
2005-01-23, 00:38:00,VALID,919.473,VALID,0,VALID,87.8717,VALID,-0.0509425,VALID,20.7408,VALID,136,VALID,1.46146,
2005-01-23, 00:39:00,VALID,919.487,VALID,0,VALID,87.9213,VALID,-0.101885,VALID,20.7569,VALID,139,VALID,1.56339,
2005-01-23, 00:40:01,VALID,919.442,VALID,0,VALID,87.9658,VALID,-0.0339617,VALID,20.7303,VALID,144,VALID,1.52681,
2005-01-23, 00:41:00,VALID,919.424,VALID,0,VALID,88.0319,VALID,-0.0679233,VALID,20.7271,VALID,134,VALID,1.59091,
2005-01-23, 00:42:00,VALID,919.435,VALID,0,VALID,88.1006,VALID,-0.0509425,VALID,20.7147,VALID,146,VALID,1.524,
2005-01-23, 00:43:01,VALID,919.404,VALID,0,VALID,88.0624,VALID,-0.0509425,VALID,20.7017,VALID,147,VALID,1.88681,
2005-01-23, 00:44:00,VALID,919.401,VALID,0,VALID,88.1781,VALID,-0.0339617,VALID,20.6915,VALID,146,VALID,1.25539,
2005-01-23, 00:45:00,VALID,919.38,VALID,0,VALID,88.2519,VALID,-0.0849042,VALID,20.6627,VALID,134,VALID,1.63844,
2005-01-23, 00:46:00,VALID,919.38,VALID,0,VALID,88.2557,VALID,-0.0169808,VALID,20.6471,VALID,131,VALID,1.81864,
2005-01-23, 00:47:01,VALID,919.393,VALID,0,VALID,88.2163,VALID,-0.0849042,VALID,20.6471,VALID,138,VALID,1.70934,
2005-01-23, 00:48:00,VALID,919.404,VALID,0,VALID,88.2659,VALID,-0.0679233,VALID,20.6538,VALID,142,VALID,1.33371,
2005-01-23, 00:49:00,VALID,919.394,VALID,0,VALID,88.3079,VALID,-0.101885,VALID,20.6436,VALID,137,VALID,1.25242,
2005-01-23, 00:50:00,VALID,919.401,VALID,0,VALID,88.3409,VALID,-0.0849042,VALID,20.6309,VALID,122,VALID,1.32958,
2005-01-23, 00:51:00,VALID,919.409,VALID,0,VALID,88.5431,VALID,-0.0849042,VALID,20.6212,VALID,106,VALID,1.14672,
2005-01-23, 00:52:01,VALID,919.399,VALID,0,VALID,88.7186,VALID,-0.0509425,VALID,20.5825,VALID,103,VALID,1.36737,
2005-01-23, 00:53:01,VALID,919.361,VALID,0,VALID,88.7148,VALID,-0.0679233,VALID,20.5666,VALID,112,VALID,1.13932,
2005-01-23, 00:54:00,VALID,919.326,VALID,0,VALID,88.7504,VALID,-0.0509425,VALID,20.5763,VALID,156,VALID,1.88118,
2005-01-23, 00:55:00,VALID,919.299,VALID,0,VALID,88.6779,VALID,-0.0849042,VALID,20.5892,VALID,148,VALID,1.76563,
2005-01-23, 00:56:00,VALID,919.301,VALID,0,VALID,88.5304,VALID,-0.0849042,VALID,20.6051,VALID,154,VALID,1.35429,
2005-01-23, 00:57:00,VALID,919.278,VALID,0,VALID,88.4286,VALID,-0.0509425,VALID,20.6377,VALID,149,VALID,1.21224,
2005-01-23, 00:58:01,VALID,919.264,VALID,0,VALID,88.3765,VALID,-0.0679233,VALID,20.6374,VALID,139,VALID,1.72093,
2005-01-23, 00:59:01,VALID,919.257,VALID,0,VALID,88.1324,VALID,-0.0509425,VALID,20.6702,VALID,140,VALID,1.93714,
2005-01-23, 01:00:00,VALID,919.239,VALID,0,VALID,88.0561,VALID,-0.0509425,VALID,20.7052,VALID,142,VALID,1.42113,
2005-01-23, 01:01:01,VALID,919.23,VALID,0,VALID,88.0879,VALID,-0.0509425,VALID,20.7047,VALID,125,VALID,1.82703,
2005-01-23, 01:02:00,VALID,919.203,VALID,0,VALID,88.2583,VALID,-0.0339617,VALID,20.6982,VALID,131,VALID,1.60392,
2005-01-23, 01:03:00,VALID,919.182,VALID,0,VALID,88.2748,VALID,-0.0509425,VALID,20.6665,VALID,142,VALID,1.62573,
2005-01-23, 01:04:01,VALID,919.166,VALID,0,VALID,88.2494,VALID,-0.0849042,VALID,20.6697,VALID,137,VALID,2.13567,
2005-01-23, 01:05:00,VALID,919.162,VALID,0,VALID,88.2214,VALID,-0.0849042,VALID,20.6826,VALID,135,VALID,2.09629,
2005-01-23, 01:06:00,VALID,919.17,VALID,0,VALID,88.1934,VALID,-0.0679233,VALID,20.6893,VALID,135,VALID,1.7609,
2005-01-23, 01:07:00,VALID,919.18,VALID,0,VALID,88.1845,VALID,-0.0339617,VALID,20.699,VALID,142,VALID,1.75667,
2005-01-23, 01:08:01,VALID,919.163,VALID,0,VALID,88.1985,VALID,-0.0679233,VALID,20.7017,VALID,143,VALID,1.75999,
2005-01-23, 01:09:01,VALID,919.162,VALID,0,VALID,88.2163,VALID,-0.0679233,VALID,20.7117,VALID,147,VALID,1.51696,
2005-01-23, 01:10:01,VALID,919.163,VALID,0,VALID,88.332,VALID,-0.0509425,VALID,20.702,VALID,131,VALID,1.40752,
2005-01-23, 01:11:00,VALID,919.166,VALID,0,VALID,88.4261,VALID,-0.0679233,VALID,20.6923,VALID,147,VALID,1.15536,
2005-01-23, 01:12:00,VALID,919.176,VALID,0,VALID,88.3129,VALID,-0.0849042,VALID,20.6963,VALID,136,VALID,1.6183,
2005-01-23, 01:13:01,VALID,919.158,VALID,0,VALID,88.29,VALID,-0.0509425,VALID,20.705,VALID,132,VALID,1.89288,
2005-01-23, 01:14:00,VALID,919.161,VALID,0,VALID,88.4604,VALID,-0.0509425,VALID,20.7052,VALID,145,VALID,1.1388,
2005-01-23, 01:15:00,VALID,919.146,VALID,0,VALID,88.4554,VALID,-0.101885,VALID,20.6993,VALID,143,VALID,2.2141,
2005-01-23, 01:16:01,VALID,919.149,VALID,0,VALID,88.5978,VALID,-0.0339617,VALID,20.6993,VALID,136,VALID,1.76349,
2005-01-23, 01:17:00,VALID,919.143,VALID,0,VALID,88.6855,VALID,-0.0339617,VALID,20.6764,VALID,135,VALID,1.56559,
2005-01-23, 01:18:01,VALID,919.142,VALID,0,VALID,88.8139,VALID,-0.0679233,VALID,20.6632,VALID,140,VALID,1.63108,
2005-01-23, 01:19:00,VALID,919.132,VALID,0,VALID,88.7923,VALID,-0.0679233,VALID,20.6667,VALID,136,VALID,1.76524,
2005-01-23, 01:20:00,VALID,919.113,VALID,0,VALID,88.8038,VALID,0,VALID,20.6716,VALID,140,VALID,1.3285,
2005-01-23, 01:21:01,VALID,919.1,VALID,0,VALID,88.8521,VALID,0,VALID,20.6716,VALID,133,VALID,1.69568,
2005-01-23, 01:22:01,VALID,919.079,VALID,0,VALID,88.9144,VALID,0.0339617,VALID,20.6783,VALID,139,VALID,1.5435,
2005-01-23, 01:23:01,VALID,919.069,VALID,0,VALID,88.9373,VALID,0.0339617,VALID,20.6617,VALID,140,VALID,1.78506,
2005-01-23, 01:24:00,VALID,919.056,VALID,0,VALID,88.8635,VALID,0,VALID,20.6714,VALID,131,VALID,0.952195,
2005-01-23, 01:25:01,VALID,919.043,VALID,0,VALID,88.7949,VALID,0.0339617,VALID,20.6811,VALID,135,VALID,1.62014,
2005-01-23, 01:26:01,VALID,919.034,VALID,0,VALID,88.7135,VALID,0,VALID,20.7007,VALID,136,VALID,1.5785,
2005-01-23, 01:27:00,VALID,919.015,VALID,0,VALID,88.8546,VALID,0,VALID,20.7007,VALID,140,VALID,1.23651,
2005-01-23, 01:28:01,VALID,919.003,VALID,0,VALID,88.8521,VALID,0,VALID,20.6945,VALID,134,VALID,1.476,
2005-01-23, 01:29:00,VALID,918.977,VALID,0,VALID,88.9869,VALID,-0.0169808,VALID,20.6843,VALID,145,VALID,1.48344,
2005-01-23, 01:30:01,VALID,918.958,VALID,0,VALID,89.1255,VALID,0.0169808,VALID,20.6646,VALID,139,VALID,1.54358,
2005-01-23, 01:31:01,VALID,918.939,VALID,0,VALID,89.0352,VALID,0,VALID,20.6587,VALID,150,VALID,1.67266,
2005-01-23, 01:32:01,VALID,918.928,VALID,0,VALID,89.1128,VALID,0.0339617,VALID,20.6517,VALID,132,VALID,1.21968,
2005-01-23, 01:33:01,VALID,918.911,VALID,0,VALID,89.142,VALID,0.0169808,VALID,20.6522,VALID,131,VALID,1.47786,
2005-01-23, 01:34:01,VALID,918.875,VALID,0,VALID,89.2094,VALID,0.0339617,VALID,20.6294,VALID,137,VALID,1.73136,
2005-01-23, 01:35:01,VALID,918.859,VALID,0,VALID,89.3099,VALID,0.0169808,VALID,20.6199,VALID,131,VALID,1.33079,
2005-01-23, 01:36:01,VALID,918.828,VALID,0,VALID,89.4141,VALID,0,VALID,20.6068,VALID,136,VALID,1.06123,
2005-01-23, 01:37:01,VALID,918.821,VALID,0,VALID,89.4993,VALID,0.0169808,VALID,20.5973,VALID,141,VALID,1.24758,
2005-01-23, 01:38:00,VALID,918.809,VALID,0,VALID,89.5082,VALID,0.0509425,VALID,20.5844,VALID,131,VALID,1.73363,
2005-01-23, 01:39:01,VALID,918.793,VALID,0,VALID,89.5909,VALID,0,VALID,20.5745,VALID,126,VALID,1.4455,
2005-01-23, 01:40:01,VALID,918.778,VALID,0,VALID,89.6456,VALID,0.0339617,VALID,20.5677,VALID,127,VALID,1.26339,
2005-01-23, 01:41:01,VALID,918.769,VALID,0,VALID,89.6278,VALID,0.0169808,VALID,20.565,VALID,128,VALID,1.58872,
2005-01-23, 01:42:00,VALID,918.745,VALID,0,VALID,89.6774,VALID,0.0169808,VALID,20.5586,VALID,125,VALID,1.58382,
2005-01-23, 01:43:01,VALID,918.74,VALID,0,VALID,89.7066,VALID,0,VALID,20.5653,VALID,144,VALID,1.18928,
2005-01-23, 01:44:01,VALID,918.729,VALID,0,VALID,89.4981,VALID,0,VALID,20.5551,VALID,133,VALID,1.40371,
2005-01-23, 01:45:01,VALID,918.736,VALID,0,VALID,89.6011,VALID,0,VALID,20.5648,VALID,114,VALID,1.19113,
2005-01-23, 01:46:00,VALID,918.721,VALID,0,VALID,89.802,VALID,0.0169808,VALID,20.5419,VALID,120,VALID,0.594551,
2005-01-23, 01:47:01,VALID,918.703,VALID,0,VALID,89.9864,VALID,0,VALID,20.5128,VALID,123,VALID,0.740885,
2005-01-23, 01:48:00,VALID,918.69,VALID,0,VALID,90.2064,VALID,0.0169808,VALID,20.4902,VALID,126,VALID,0.742551,
2005-01-23, 01:49:01,VALID,918.674,VALID,0,VALID,90.2992,VALID,0.0169808,VALID,20.4681,VALID,122,VALID,0.971037,
2005-01-23, 01:50:01,VALID,918.659,VALID,0,VALID,90.4569,VALID,-0.0849042,VALID,20.4533,VALID,91,VALID,0.543155,
2005-01-23, 01:51:01,VALID,918.627,VALID,0,VALID,90.5739,VALID,-0.101885,VALID,20.411,VALID,109,VALID,0.71909,
2005-01-23, 01:52:01,VALID,918.614,VALID,0,VALID,90.6629,VALID,-0.0849042,VALID,20.4115,VALID,84,VALID,0.924419,
2005-01-23, 01:53:01,VALID,918.595,VALID,0,VALID,90.8116,VALID,-0.0679233,VALID,20.3984,VALID,118,VALID,1.23183,
2005-01-23, 01:54:01,VALID,918.585,VALID,0,VALID,90.8244,VALID,-0.101885,VALID,20.3763,VALID,117,VALID,1.15781,
2005-01-23, 01:55:01,VALID,918.585,VALID,0,VALID,90.757,VALID,-0.101885,VALID,20.3787,VALID,125,VALID,0.944949,
2005-01-23, 01:56:01,VALID,918.587,VALID,0,VALID,90.7404,VALID,-0.0849042,VALID,20.3984,VALID,134,VALID,0.942508,
2005-01-23, 01:57:01,VALID,918.59,VALID,0,VALID,90.6463,VALID,-0.101885,VALID,20.4118,VALID,135,VALID,1.0643,
2005-01-23, 01:58:01,VALID,918.583,VALID,0,VALID,90.5408,VALID,-0.0849042,VALID,20.4145,VALID,143,VALID,1.18928,
2005-01-23, 01:59:01,VALID,918.591,VALID,0,VALID,90.5471,VALID,-0.0679233,VALID,20.4344,VALID,152,VALID,0.91183,
2005-01-23, 02:00:01,VALID,918.582,VALID,0,VALID,90.5421,VALID,-0.101885,VALID,20.4369,VALID,157,VALID,1.06064,
2005-01-23, 02:01:01,VALID,918.572,VALID,0,VALID,90.4454,VALID,-0.0849042,VALID,20.4438,VALID,150,VALID,0.718006,
2005-01-23, 02:02:01,VALID,918.567,VALID,0,VALID,90.467,VALID,-0.0849042,VALID,20.4533,VALID,141,VALID,0.865234,
2005-01-23, 02:03:01,VALID,918.548,VALID,0,VALID,90.5268,VALID,-0.0849042,VALID,20.4468,VALID,142,VALID,0.879687,
2005-01-23, 02:04:01,VALID,918.538,VALID,0,VALID,90.5243,VALID,-0.0849042,VALID,20.45,VALID,127,VALID,0.970084,
2005-01-23, 02:05:01,VALID,918.506,VALID,0,VALID,90.6412,VALID,0,VALID,20.445,VALID,130,VALID,0.939098,
2005-01-23, 02:06:01,VALID,918.481,VALID,0,VALID,90.6756,VALID,0,VALID,20.4356,VALID,123,VALID,1.11644,
2005-01-23, 02:07:01,VALID,918.469,VALID,0,VALID,90.8167,VALID,0.0509425,VALID,20.4095,VALID,126,VALID,0.822976,
2005-01-23, 02:08:00,VALID,918.436,VALID,0,VALID,90.8536,VALID,0,VALID,20.4003,VALID,131,VALID,0.865916,
2005-01-23, 02:09:00,VALID,918.434,VALID,0,VALID,90.8015,VALID,0.0339617,VALID,20.3874,VALID,127,VALID,1.23114,
2005-01-23, 02:10:00,VALID,918.416,VALID,0,VALID,90.8485,VALID,0.0339617,VALID,20.3839,VALID,119,VALID,1.18205,
2005-01-23, 02:11:00,VALID,918.424,VALID,0,VALID,90.8994,VALID,0.0339617,VALID,20.3809,VALID,120,VALID,1.05833,
2005-01-23, 02:12:00,VALID,918.415,VALID,0,VALID,91.0863,VALID,0,VALID,20.3643,VALID,121,VALID,0.827934,
2005-01-23, 02:13:00,VALID,918.419,VALID,0,VALID,91.1931,VALID,0.0339617,VALID,20.3489,VALID,128,VALID,0.994549,
2005-01-23, 02:14:00,VALID,918.408,VALID,0,VALID,91.2427,VALID,0.0169808,VALID,20.3322,VALID,149,VALID,1.28441,
2005-01-23, 02:15:00,VALID,918.4,VALID,0,VALID,91.3114,VALID,0.0169808,VALID,20.3158,VALID,149,VALID,1.1183,
2005-01-23, 02:16:00,VALID,918.382,VALID,0,VALID,91.3114,VALID,0.0169808,VALID,20.3131,VALID,148,VALID,1.45549,
2005-01-23, 02:17:00,VALID,918.387,VALID,0,VALID,91.3966,VALID,0.0169808,VALID,20.3066,VALID,144,VALID,1.22135,
2005-01-23, 02:18:00,VALID,918.398,VALID,0,VALID,91.3088,VALID,0.0169808,VALID,20.3064,VALID,141,VALID,1.34783,
2005-01-23, 02:19:00,VALID,918.384,VALID,0,VALID,91.258,VALID,0.0339617,VALID,20.2967,VALID,144,VALID,1.29497,
2005-01-23, 02:20:00,VALID,918.389,VALID,0,VALID,91.024,VALID,-0.118866,VALID,20.3146,VALID,139,VALID,1.48549,
2005-01-23, 02:21:00,VALID,918.38,VALID,0,VALID,91.0507,VALID,-0.101885,VALID,20.3241,VALID,138,VALID,1.65547,
2005-01-23, 02:22:00,VALID,918.364,VALID,0,VALID,91.0113,VALID,-0.101885,VALID,20.3308,VALID,146,VALID,1.5516,
2005-01-23, 02:23:00,VALID,918.357,VALID,0,VALID,91.0011,VALID,-0.0849042,VALID,20.3276,VALID,151,VALID,1.27229,
2005-01-23, 02:24:00,VALID,918.346,VALID,0,VALID,90.9477,VALID,-0.0679233,VALID,20.3273,VALID,150,VALID,1.52172,
2005-01-23, 02:25:00,VALID,918.338,VALID,0,VALID,90.9591,VALID,-0.0849042,VALID,20.3241,VALID,134,VALID,1.32552,
2005-01-23, 02:26:00,VALID,918.333,VALID,0,VALID,90.9502,VALID,-0.0849042,VALID,20.3308,VALID,133,VALID,1.52616,
2005-01-23, 02:27:00,VALID,918.333,VALID,0,VALID,91.0418,VALID,0.0169808,VALID,20.2962,VALID,135,VALID,1.4308,
2005-01-23, 02:28:00,VALID,918.331,VALID,0,VALID,91.2008,VALID,0,VALID,20.2811,VALID,145,VALID,1.92205,
2005-01-23, 02:29:00,VALID,918.353,VALID,0,VALID,91.3801,VALID,0.0509425,VALID,20.2515,VALID,140,VALID,1.45598,
2005-01-23, 02:30:00,VALID,918.333,VALID,0,VALID,91.4614,VALID,0.0339617,VALID,20.2162,VALID,121,VALID,1.64878,
2005-01-23, 02:31:00,VALID,918.333,VALID,0,VALID,91.5886,VALID,0.0339617,VALID,20.1871,VALID,129,VALID,1.52039,
2005-01-23, 02:32:00,VALID,918.302,VALID,0,VALID,91.689,VALID,0.0339617,VALID,20.1742,VALID,124,VALID,1.36682,
2005-01-23, 02:33:00,VALID,918.259,VALID,0,VALID,91.7742,VALID,0.0339617,VALID,20.1449,VALID,131,VALID,1.45526,
2005-01-23, 02:34:00,VALID,918.239,VALID,0,VALID,91.8493,VALID,0.0509425,VALID,20.1255,VALID,116,VALID,1.35065,
2005-01-23, 02:35:00,VALID,918.235,VALID,0,VALID,91.9319,VALID,0.0169808,VALID,20.1029,VALID,115,VALID,1.37407,
2005-01-23, 02:36:00,VALID,918.224,VALID,0,VALID,92.0832,VALID,0.0509425,VALID,20.0873,VALID,124,VALID,1.37882,
2005-01-23, 02:37:00,VALID,918.207,VALID,0,VALID,92.2295,VALID,0,VALID,20.048,VALID,122,VALID,1.28646,
2005-01-23, 02:38:00,VALID,918.195,VALID,0,VALID,92.3655,VALID,0.0169808,VALID,20.016,VALID,122,VALID,1.41406,
2005-01-23, 02:39:00,VALID,918.2,VALID,0,VALID,92.4444,VALID,0.0509425,VALID,19.9899,VALID,128,VALID,1.98624,
2005-01-23, 02:40:00,VALID,918.175,VALID,0,VALID,92.6122,VALID,0.0679233,VALID,19.9603,VALID,124,VALID,1.3869,
2005-01-23, 02:41:00,VALID,918.152,VALID,0,VALID,92.7432,VALID,0.0169808,VALID,19.9449,VALID,133,VALID,1.46285,
2005-01-23, 02:42:00,VALID,918.141,VALID,0,VALID,92.8411,VALID,0,VALID,19.9263,VALID,125,VALID,1.59338,
2005-01-23, 02:43:00,VALID,918.142,VALID,0,VALID,92.8856,VALID,0,VALID,19.9099,VALID,133,VALID,1.59847,
2005-01-23, 02:44:00,VALID,918.139,VALID,0,VALID,92.9518,VALID,0.0509425,VALID,19.9002,VALID,145,VALID,1.23342,
2005-01-23, 02:45:00,VALID,918.135,VALID,0,VALID,93.0039,VALID,0.0339617,VALID,19.8905,VALID,132,VALID,1.23108,
2005-01-23, 02:46:00,VALID,918.121,VALID,0,VALID,93.0306,VALID,0.0509425,VALID,19.8873,VALID,125,VALID,0.936756,
2005-01-23, 02:47:00,VALID,918.115,VALID,0,VALID,93.1107,VALID,0,VALID,19.8577,VALID,132,VALID,1.3443,
2005-01-23, 02:48:00,VALID,918.088,VALID,0,VALID,93.2569,VALID,0.0509425,VALID,19.855,VALID,121,VALID,1.44336,
2005-01-23, 02:49:00,VALID,918.087,VALID,0,VALID,93.3192,VALID,0.0509425,VALID,19.8488,VALID,110,VALID,1.4827,
2005-01-23, 02:50:00,VALID,918.058,VALID,0,VALID,93.482,VALID,-0.0509425,VALID,19.821,VALID,104,VALID,1.46528,
2005-01-23, 02:51:00,VALID,918.053,VALID,0,VALID,93.6638,VALID,-0.0849042,VALID,19.7825,VALID,113,VALID,1.32413,
2005-01-23, 02:52:00,VALID,918.033,VALID,0,VALID,93.8393,VALID,-0.0679233,VALID,19.7566,VALID,117,VALID,1.51456,
2005-01-23, 02:53:00,VALID,918.023,VALID,0,VALID,93.9907,VALID,-0.0679233,VALID,19.7236,VALID,114,VALID,1.73828,
2005-01-23, 02:54:00,VALID,918.02,VALID,0,VALID,94.1636,VALID,-0.0509425,VALID,19.7017,VALID,113,VALID,1.72619,
2005-01-23, 02:55:00,VALID,918.013,VALID,0,VALID,94.3353,VALID,-0.0679233,VALID,19.663,VALID,113,VALID,1.37246,
2005-01-23, 02:56:00,VALID,918.013,VALID,0,VALID,94.5603,VALID,-0.0509425,VALID,19.6274,VALID,115,VALID,1.76766,
2005-01-23, 02:57:00,VALID,918.009,VALID,0,VALID,94.8299,VALID,-0.101885,VALID,19.5855,VALID,119,VALID,1.35766,
2005-01-23, 02:58:00,VALID,918.005,VALID,0,VALID,95.013,VALID,-0.0849042,VALID,19.5499,VALID,137,VALID,1.31055,
2005-01-23, 02:59:00,VALID,918.005,VALID,0,VALID,95.1059,VALID,-0.0849042,VALID,19.5239,VALID,127,VALID,1.575,
2005-01-23, 03:00:00,VALID,917.997,VALID,0,VALID,95.116,VALID,-0.0849042,VALID,19.5343,VALID,127,VALID,1.56193,
2005-01-23, 03:01:00,VALID,917.981,VALID,0,VALID,95.0397,VALID,-0.0679233,VALID,19.5407,VALID,126,VALID,1.48666,
2005-01-23, 03:02:00,VALID,917.958,VALID,0,VALID,94.9189,VALID,-0.0849042,VALID,19.5499,VALID,141,VALID,1.30433,
2005-01-23, 03:03:00,VALID,917.952,VALID,0,VALID,94.7816,VALID,-0.0849042,VALID,19.5693,VALID,137,VALID,1.66043,
2005-01-23, 03:04:00,VALID,917.95,VALID,0,VALID,94.4599,VALID,-0.101885,VALID,19.6113,VALID,128,VALID,1.59431,
2005-01-23, 03:05:00,VALID,917.935,VALID,0,VALID,94.1432,VALID,0,VALID,19.6491,VALID,119,VALID,1.49479,
2005-01-23, 03:06:00,VALID,917.935,VALID,0,VALID,93.9093,VALID,0.0169808,VALID,19.6878,VALID,94,VALID,1.29806,
2005-01-23, 03:07:00,VALID,917.929,VALID,0,VALID,93.7198,VALID,0,VALID,19.6935,VALID,92,VALID,1.23609,
2005-01-23, 03:08:00,VALID,917.918,VALID,0,VALID,93.5659,VALID,0.0169808,VALID,19.7231,VALID,99,VALID,1.09557,
2005-01-23, 03:09:00,VALID,917.899,VALID,0,VALID,93.4133,VALID,0.0169808,VALID,19.7358,VALID,101,VALID,1.03487,
2005-01-23, 03:10:00,VALID,917.893,VALID,0,VALID,93.3637,VALID,0,VALID,19.7494,VALID,110,VALID,0.944222,
2005-01-23, 03:11:00,VALID,917.883,VALID,0,VALID,93.2925,VALID,-0.0169808,VALID,19.739,VALID,108,VALID,1.0875,
2005-01-23, 03:12:00,VALID,917.861,VALID,0,VALID,93.2328,VALID,0,VALID,19.7524,VALID,112,VALID,1.15781,
2005-01-23, 03:13:00,VALID,917.846,VALID,0,VALID,93.2086,VALID,0.0169808,VALID,19.7492,VALID,120,VALID,0.460175,
2005-01-23, 03:14:00,VALID,917.823,VALID,0,VALID,93.2658,VALID,0,VALID,19.7395,VALID,114,VALID,0.796196,
2005-01-23, 03:15:00,VALID,917.804,VALID,0,VALID,93.2417,VALID,0,VALID,19.7201,VALID,120,VALID,0.632999,
2005-01-23, 03:16:00,VALID,917.776,VALID,0,VALID,93.173,VALID,0.0339617,VALID,19.7236,VALID,136,VALID,1.06676,
2005-01-23, 03:17:00,VALID,917.786,VALID,0,VALID,93.0662,VALID,0.0169808,VALID,19.7392,VALID,144,VALID,0.917614,
2005-01-23, 03:18:00,VALID,917.782,VALID,0,VALID,92.9835,VALID,0,VALID,19.7559,VALID,126,VALID,0.706395,
2005-01-23, 03:19:00,VALID,917.799,VALID,0,VALID,92.9746,VALID,0,VALID,19.736,VALID,107,VALID,0.687682,
2005-01-23, 03:20:00,VALID,917.802,VALID,0,VALID,93.1349,VALID,0,VALID,19.7233,VALID,107,VALID,0.968576,
2005-01-23, 03:21:00,VALID,917.813,VALID,0,VALID,93.0802,VALID,0.0169808,VALID,19.7268,VALID,100,VALID,1.06747,
2005-01-23, 03:22:00,VALID,917.793,VALID,0,VALID,92.9657,VALID,0.0169808,VALID,19.7338,VALID,109,VALID,0.841518,
2005-01-23, 03:23:00,VALID,917.799,VALID,0,VALID,92.9212,VALID,0,VALID,19.7335,VALID,87,VALID,0.785417,
2005-01-23, 03:24:00,VALID,917.788,VALID,0,VALID,93.0484,VALID,0,VALID,19.7136,VALID,81,VALID,0.855741,
2005-01-23, 03:25:00,VALID,917.779,VALID,0,VALID,93.2379,VALID,0.0169808,VALID,19.6943,VALID,90,VALID,0.719271,
2005-01-23, 03:26:00,VALID,917.764,VALID,0,VALID,93.3536,VALID,0.0169808,VALID,19.6908,VALID,97,VALID,0.894531,
2005-01-23, 03:27:00,VALID,917.746,VALID,0,VALID,93.3294,VALID,0,VALID,19.6881,VALID,83,VALID,0.980015,
2005-01-23, 03:28:00,VALID,917.734,VALID,0,VALID,93.3892,VALID,0.0339617,VALID,19.6843,VALID,64,VALID,0.858445,
2005-01-23, 03:29:00,VALID,917.727,VALID,0,VALID,93.3854,VALID,0.0169808,VALID,19.6945,VALID,75,VALID,0.763765,
2005-01-23, 03:30:00,VALID,917.729,VALID,0,VALID,93.3345,VALID,0.0169808,VALID,19.7102,VALID,79,VALID,0.798878,
2005-01-23, 03:31:00,VALID,917.756,VALID,0,VALID,93.2697,VALID,0.0169808,VALID,19.7228,VALID,88,VALID,0.49628,
2005-01-23, 03:32:00,VALID,917.764,VALID,0,VALID,93.2646,VALID,0.0169808,VALID,19.7263,VALID,88,VALID,0.336483,